GLO1248 SBSP-SBPA

Flight info

Callsign GLO1248
Flight time 1h 12m
Altitude 38000
Route SEDL1A UBSOD UZ38 VUKMO UBRE1B
Aircraft B738/M-SDFGIKLORWXY/LB1

Departure

Time 2026-05-08 15:00
Airport Congonhas–Deputado Freitas Nobre Airport (SBSP)

Arrival

Time 2026-05-08 16:12
Airport Porto Alegre-Salgado Filho International Airport (SBPA)
Time Latitude Longitude Altitude Speed Heading
2026-05-08 14:46 -23.62811 -46.65753 2600 ft 0 kts 238°
2026-05-08 14:53 -23.62807 -46.65746 2600 ft 4 kts 236°
2026-05-08 14:53 -23.62791 -46.65727 2600 ft 4 kts 187°
2026-05-08 14:54 -23.62771 -46.65733 2600 ft 4 kts 153°
2026-05-08 14:54 -23.62747 -46.65747 2600 ft 4 kts 148°
2026-05-08 14:54 -23.62730 -46.65758 2600 ft 0 kts 147°
2026-05-08 14:56 -23.62731 -46.65758 2600 ft 0 kts 147°
2026-05-08 14:56 -23.62777 -46.65728 2600 ft 13 kts 147°
2026-05-08 14:56 -23.62839 -46.65665 2601 ft 12 kts 114°
2026-05-08 14:56 -23.62894 -46.65597 2602 ft 12 kts 149°
2026-05-08 14:57 -23.62964 -46.65548 2602 ft 12 kts 147°
2026-05-08 14:57 -23.63039 -46.65509 2602 ft 12 kts 176°
2026-05-08 14:57 -23.63118 -46.65483 2601 ft 12 kts 147°
2026-05-08 14:57 -23.63191 -46.65431 2601 ft 13 kts 147°
2026-05-08 14:58 -23.63267 -46.65376 2601 ft 13 kts 147°
2026-05-08 14:58 -23.63342 -46.65322 2601 ft 13 kts 146°
2026-05-08 14:58 -23.63420 -46.65268 2601 ft 13 kts 147°
2026-05-08 14:58 -23.63492 -46.65210 2599 ft 13 kts 126°
2026-05-08 14:59 -23.63462 -46.65134 2599 ft 12 kts 33°
2026-05-08 14:59 -23.63127 -46.65327 2609 ft 88 kts 327°
2026-05-08 14:59 -23.62390 -46.65840 2602 ft 162 kts 327°
2026-05-08 15:00 -23.61331 -46.66572 3189 ft 177 kts 328°
2026-05-08 15:00 -23.60325 -46.67294 4381 ft 174 kts 318°
2026-05-08 15:00 -23.59767 -46.68455 5145 ft 174 kts 289°
2026-05-08 15:00 -23.59398 -46.69742 5511 ft 180 kts 291°
2026-05-08 15:01 -23.58999 -46.71037 5965 ft 181 kts 291°
2026-05-08 15:01 -23.58560 -46.72418 6305 ft 207 kts 291°
2026-05-08 15:01 -23.58053 -46.73996 6540 ft 231 kts 291°
2026-05-08 15:01 -23.57520 -46.75694 7060 ft 244 kts 287°
2026-05-08 15:02 -23.57566 -46.77644 7322 ft 277 kts 250°
2026-05-08 15:02 -23.58750 -46.79351 8013 ft 291 kts 219°
2026-05-08 15:02 -23.60503 -46.80499 8878 ft 296 kts 209°
2026-05-08 15:02 -23.62373 -46.81470 9738 ft 299 kts 207°
2026-05-08 15:03 -23.64292 -46.82415 10456 ft 309 kts 206°
2026-05-08 15:03 -23.66335 -46.83420 10660 ft 335 kts 206°
2026-05-08 15:03 -23.68516 -46.84504 11085 ft 350 kts 206°
2026-05-08 15:03 -23.70724 -46.85615 11778 ft 355 kts 206°
2026-05-08 15:04 -23.72972 -46.86757 12601 ft 357 kts 206°
2026-05-08 15:04 -23.75232 -46.87913 13352 ft 361 kts 206°
2026-05-08 15:04 -23.77520 -46.89090 14045 ft 365 kts 207°
2026-05-08 15:04 -23.79836 -46.90286 14739 ft 369 kts 207°
2026-05-08 15:05 -23.82166 -46.91492 15420 ft 373 kts 207°
2026-05-08 15:05 -23.84521 -46.92712 16054 ft 377 kts 207°
2026-05-08 15:05 -23.86908 -46.93949 16699 ft 381 kts 207°
2026-05-08 15:05 -23.89278 -46.95178 17326 ft 384 kts 207°
2026-05-08 15:06 -23.91701 -46.96436 17921 ft 388 kts 207°
2026-05-08 15:06 -23.94153 -46.97710 18512 ft 391 kts 207°
2026-05-08 15:06 -23.96628 -46.98995 19111 ft 394 kts 207°
2026-05-08 15:06 -23.99113 -47.00287 19702 ft 397 kts 207°
2026-05-08 15:07 -24.01626 -47.01592 20271 ft 401 kts 207°
2026-05-08 15:07 -24.04153 -47.02906 20831 ft 404 kts 207°
2026-05-08 15:07 -24.06697 -47.04230 21377 ft 407 kts 207°
2026-05-08 15:07 -24.09271 -47.05571 21871 ft 410 kts 207°
2026-05-08 15:08 -24.11859 -47.06919 22356 ft 414 kts 207°
2026-05-08 15:08 -24.13591 -47.07821 22690 ft 416 kts 207°
2026-05-08 15:08 -24.17103 -47.09652 23328 ft 420 kts 207°
2026-05-08 15:08 -24.19745 -47.11030 23765 ft 423 kts 207°
2026-05-08 15:09 -24.22416 -47.12424 24220 ft 426 kts 207°
2026-05-08 15:09 -24.25102 -47.13826 24674 ft 428 kts 207°
2026-05-08 15:09 -24.27737 -47.15333 25099 ft 429 kts 213°
2026-05-08 15:09 -24.30294 -47.17050 25525 ft 431 kts 215°
2026-05-08 15:10 -24.32816 -47.18848 25998 ft 433 kts 216°
2026-05-08 15:10 -24.35357 -47.20636 26492 ft 434 kts 216°
2026-05-08 15:10 -24.37897 -47.22431 26876 ft 437 kts 215°
2026-05-08 15:10 -24.40444 -47.24220 27055 ft 437 kts 216°
2026-05-08 15:11 -24.43017 -47.26046 27281 ft 444 kts 215°
2026-05-08 15:11 -24.45616 -47.27882 27752 ft 443 kts 216°
2026-05-08 15:11 -24.48196 -47.29731 28180 ft 440 kts 217°
2026-05-08 15:11 -24.50791 -47.31597 28401 ft 450 kts 214°
2026-05-08 15:12 -24.53433 -47.33406 29006 ft 446 kts 214°
2026-05-08 15:12 -24.56089 -47.35189 29303 ft 449 kts 214°
2026-05-08 15:12 -24.58753 -47.37007 29502 ft 452 kts 215°
2026-05-08 15:12 -24.61386 -47.38842 29683 ft 456 kts 216°
2026-05-08 15:13 -24.64053 -47.40729 29949 ft 457 kts 216°
2026-05-08 15:13 -24.66738 -47.42607 30248 ft 458 kts 215°
2026-05-08 15:13 -24.69459 -47.44455 30571 ft 461 kts 215°
2026-05-08 15:13 -24.72169 -47.46357 30925 ft 461 kts 216°
2026-05-08 15:14 -24.74865 -47.48252 31265 ft 460 kts 216°
2026-05-08 15:14 -24.77566 -47.50127 31652 ft 459 kts 215°
2026-05-08 15:14 -24.80252 -47.52004 32053 ft 456 kts 216°
2026-05-08 15:14 -24.82903 -47.53911 32365 ft 454 kts 217°
2026-05-08 15:15 -24.85552 -47.55808 32692 ft 455 kts 216°
2026-05-08 15:15 -24.88210 -47.57672 33232 ft 452 kts 216°
2026-05-08 15:15 -24.90839 -47.59518 33672 ft 448 kts 216°
2026-05-08 15:15 -24.93494 -47.61345 33984 ft 449 kts 216°
2026-05-08 15:16 -24.96130 -47.63180 34291 ft 447 kts 216°
2026-05-08 15:16 -24.98739 -47.65036 34547 ft 446 kts 216°
2026-05-08 15:16 -25.01362 -47.66881 34764 ft 446 kts 216°
2026-05-08 15:16 -25.03967 -47.68697 35166 ft 446 kts 216°
2026-05-08 15:17 -25.06551 -47.70543 35676 ft 441 kts 216°
2026-05-08 15:17 -25.09165 -47.72334 35913 ft 442 kts 216°
2026-05-08 15:17 -25.11756 -47.74153 36015 ft 443 kts 217°
2026-05-08 15:17 -25.14358 -47.76016 36275 ft 446 kts 216°
2026-05-08 15:18 -25.16952 -47.77841 36690 ft 440 kts 217°
2026-05-08 15:18 -25.19524 -47.79688 36935 ft 440 kts 217°
2026-05-08 15:18 -25.22082 -47.81507 37308 ft 435 kts 216°
2026-05-08 15:18 -25.24620 -47.83298 37717 ft 430 kts 216°
2026-05-08 15:19 -25.27141 -47.85079 37913 ft 431 kts 216°
2026-05-08 15:19 -25.29668 -47.86868 38012 ft 433 kts 217°
2026-05-08 15:19 -25.34769 -47.90489 37962 ft 438 kts 217°
2026-05-08 15:20 -25.39896 -47.94140 37903 ft 437 kts 217°
2026-05-08 15:20 -25.44996 -47.97776 37896 ft 435 kts 217°
2026-05-08 15:21 -25.50069 -48.01396 37927 ft 432 kts 217°
2026-05-08 15:21 -25.55107 -48.04995 37930 ft 430 kts 217°
2026-05-08 15:22 -25.60100 -48.08565 37934 ft 429 kts 217°
2026-05-08 15:22 -25.65116 -48.12149 37929 ft 429 kts 217°
2026-05-08 15:23 -25.70141 -48.15714 37925 ft 430 kts 217°
2026-05-08 15:23 -25.75187 -48.19296 37920 ft 431 kts 217°
2026-05-08 15:24 -25.80240 -48.22889 37907 ft 432 kts 217°
2026-05-08 15:24 -25.85314 -48.26502 37906 ft 433 kts 217°
2026-05-08 15:25 -25.90402 -48.30130 37900 ft 435 kts 217°
2026-05-08 15:25 -25.95503 -48.33772 37892 ft 436 kts 217°
2026-05-08 15:26 -26.00578 -48.37398 37888 ft 437 kts 217°
2026-05-08 15:26 -26.04805 -48.40421 37864 ft 438 kts 217°
2026-05-08 15:27 -26.08454 -48.43033 37858 ft 438 kts 217°
2026-05-08 15:27 -26.13580 -48.46705 37859 ft 438 kts 217°
2026-05-08 15:28 -26.18718 -48.50390 37860 ft 442 kts 217°
2026-05-08 15:28 -26.23895 -48.54109 37855 ft 450 kts 217°
2026-05-08 15:29 -26.29195 -48.57921 37842 ft 456 kts 217°
2026-05-08 15:29 -26.34545 -48.61790 37836 ft 460 kts 217°
2026-05-08 15:30 -26.39014 -48.65027 37832 ft 462 kts 217°
2026-05-08 15:30 -26.44411 -48.68938 37833 ft 463 kts 217°
2026-05-08 15:31 -26.48344 -48.71794 37833 ft 463 kts 217°
2026-05-08 15:31 -26.53730 -48.75742 37832 ft 462 kts 217°
2026-05-08 15:32 -26.59067 -48.79663 37832 ft 462 kts 217°
2026-05-08 15:32 -26.64058 -48.83329 37839 ft 462 kts 217°
2026-05-08 15:33 -26.68245 -48.86404 37834 ft 462 kts 217°
2026-05-08 15:33 -26.73628 -48.90334 37833 ft 461 kts 217°
2026-05-08 15:34 -26.79000 -48.94257 37833 ft 461 kts 217°
2026-05-08 15:34 -26.84332 -48.98159 37832 ft 461 kts 217°
2026-05-08 15:35 -26.89701 -49.02095 37843 ft 460 kts 217°
2026-05-08 15:35 -26.95074 -49.06037 37839 ft 461 kts 217°
2026-05-08 15:36 -27.00442 -49.09980 37831 ft 461 kts 217°
2026-05-08 15:36 -27.05802 -49.13921 37833 ft 461 kts 218°
2026-05-08 15:37 -27.11135 -49.17849 37829 ft 461 kts 218°
2026-05-08 15:37 -27.16502 -49.21807 37837 ft 461 kts 218°
2026-05-08 15:38 -27.21861 -49.25762 37835 ft 461 kts 218°
2026-05-08 15:38 -27.27230 -49.29729 37830 ft 461 kts 218°
2026-05-08 15:39 -27.32595 -49.33699 37824 ft 462 kts 218°
2026-05-08 15:39 -27.37963 -49.37675 37822 ft 461 kts 218°
2026-05-08 15:40 -27.43291 -49.41627 37826 ft 462 kts 218°
2026-05-08 15:40 -27.48666 -49.45617 37829 ft 462 kts 218°
2026-05-08 15:41 -27.54046 -49.49616 37827 ft 463 kts 218°
2026-05-08 15:41 -27.59424 -49.53605 37832 ft 463 kts 218°
2026-05-08 15:42 -27.64817 -49.57593 37837 ft 464 kts 218°
2026-05-08 15:42 -27.70215 -49.61592 37832 ft 464 kts 218°
2026-05-08 15:43 -27.75628 -49.65600 37833 ft 465 kts 218°
2026-05-08 15:43 -27.81070 -49.69497 37838 ft 466 kts 217°
2026-05-08 15:44 -27.86564 -49.73387 37839 ft 466 kts 217°
2026-05-08 15:44 -27.92059 -49.77296 37848 ft 466 kts 217°
2026-05-08 15:45 -27.97541 -49.81213 37845 ft 466 kts 217°
2026-05-08 15:45 -28.03025 -49.85141 37859 ft 466 kts 217°
2026-05-08 15:46 -28.08511 -49.89076 37860 ft 466 kts 217°
2026-05-08 15:46 -28.13963 -49.92990 37867 ft 466 kts 217°
2026-05-08 15:47 -28.19449 -49.96933 37860 ft 466 kts 217°
2026-05-08 15:47 -28.24923 -50.00872 37876 ft 466 kts 218°
2026-05-08 15:48 -28.30397 -50.04816 37117 ft 463 kts 218°
2026-05-08 15:48 -28.33114 -50.06775 36465 ft 463 kts 218°
2026-05-08 15:48 -28.35826 -50.08736 35834 ft 458 kts 218°
2026-05-08 15:49 -28.38534 -50.10679 35147 ft 460 kts 217°
2026-05-08 15:49 -28.41239 -50.12633 34430 ft 460 kts 217°
2026-05-08 15:49 -28.43902 -50.14566 33739 ft 461 kts 218°
2026-05-08 15:49 -28.46606 -50.16538 32984 ft 463 kts 218°
2026-05-08 15:50 -28.49324 -50.18521 32261 ft 464 kts 217°
2026-05-08 15:50 -28.52057 -50.20498 31451 ft 465 kts 217°
2026-05-08 15:50 -28.54797 -50.22479 30644 ft 469 kts 217°
2026-05-08 15:50 -28.57554 -50.24471 29918 ft 468 kts 217°
2026-05-08 15:51 -28.60285 -50.26438 29359 ft 461 kts 217°
2026-05-08 15:51 -28.62976 -50.28392 28756 ft 457 kts 218°
2026-05-08 15:51 -28.65618 -50.30368 28173 ft 452 kts 217°
2026-05-08 15:51 -28.68268 -50.32266 27596 ft 447 kts 217°
2026-05-08 15:52 -28.70893 -50.34151 27007 ft 443 kts 216°
2026-05-08 15:52 -28.73467 -50.36041 26429 ft 439 kts 218°
2026-05-08 15:52 -28.75927 -50.38059 25868 ft 434 kts 221°
2026-05-08 15:52 -28.78171 -50.40019 25326 ft 428 kts 222°
2026-05-08 15:53 -28.80531 -50.42085 24749 ft 425 kts 221°
2026-05-08 15:53 -28.82868 -50.44123 24186 ft 421 kts 221°
2026-05-08 15:53 -28.85163 -50.46110 23639 ft 416 kts 221°
2026-05-08 15:53 -28.87472 -50.48085 23084 ft 413 kts 221°
2026-05-08 15:54 -28.89770 -50.50034 22521 ft 409 kts 220°
2026-05-08 15:54 -28.92039 -50.51970 21976 ft 405 kts 221°
2026-05-08 15:54 -28.94281 -50.53888 21419 ft 401 kts 221°
2026-05-08 15:54 -28.96499 -50.55793 20877 ft 398 kts 221°
2026-05-08 15:55 -28.98702 -50.57692 20331 ft 395 kts 221°
2026-05-08 15:55 -29.03041 -50.61420 19259 ft 386 kts 221°
2026-05-08 15:55 -29.05186 -50.63253 18716 ft 383 kts 221°
2026-05-08 15:56 -29.07297 -50.65076 18187 ft 379 kts 221°
2026-05-08 15:56 -29.09370 -50.66864 17659 ft 378 kts 221°
2026-05-08 15:56 -29.11495 -50.68603 17135 ft 377 kts 214°
2026-05-08 15:56 -29.13972 -50.69663 16676 ft 385 kts 194°
2026-05-08 15:57 -29.16644 -50.69926 16306 ft 388 kts 186°
2026-05-08 15:57 -29.19361 -50.70030 15896 ft 394 kts 185°
2026-05-08 15:57 -29.22111 -50.70114 15471 ft 396 kts 185°
2026-05-08 15:57 -29.24852 -50.70228 15053 ft 393 kts 186°
2026-05-08 15:58 -29.27579 -50.70362 14630 ft 390 kts 186°
2026-05-08 15:58 -29.30287 -50.70504 14222 ft 389 kts 186°
2026-05-08 15:58 -29.32990 -50.70630 13806 ft 387 kts 185°
2026-05-08 15:58 -29.35676 -50.70745 13405 ft 386 kts 185°
2026-05-08 15:59 -29.38354 -50.70857 13005 ft 384 kts 185°
2026-05-08 15:59 -29.41016 -50.70971 12598 ft 382 kts 185°
2026-05-08 15:59 -29.43663 -50.71085 12207 ft 380 kts 185°
2026-05-08 15:59 -29.46296 -50.71198 11814 ft 377 kts 185°
2026-05-08 16:00 -29.48889 -50.71308 11414 ft 370 kts 185°
2026-05-08 16:00 -29.51451 -50.71416 11027 ft 365 kts 185°
2026-05-08 16:00 -29.53931 -50.71524 10633 ft 354 kts 185°
2026-05-08 16:00 -29.56340 -50.71629 10279 ft 340 kts 185°
2026-05-08 16:01 -29.58661 -50.71730 9910 ft 327 kts 185°
2026-05-08 16:01 -29.60866 -50.71825 9808 ft 307 kts 185°
2026-05-08 16:01 -29.62947 -50.71916 9440 ft 299 kts 185°
2026-05-08 16:01 -29.65011 -50.72008 9050 ft 293 kts 185°
2026-05-08 16:02 -29.67022 -50.72096 8802 ft 286 kts 185°
2026-05-08 16:02 -29.69014 -50.72184 8510 ft 286 kts 185°
2026-05-08 16:02 -29.70999 -50.72272 8227 ft 285 kts 186°
2026-05-08 16:02 -29.72886 -50.72828 7911 ft 277 kts 213°
2026-05-08 16:03 -29.74404 -50.74144 7640 ft 273 kts 227°
2026-05-08 16:03 -29.75756 -50.75671 7322 ft 273 kts 229°
2026-05-08 16:03 -29.77093 -50.77223 7013 ft 273 kts 229°
2026-05-08 16:03 -29.78433 -50.78776 6697 ft 273 kts 229°
2026-05-08 16:04 -29.79775 -50.80323 6398 ft 272 kts 228°
2026-05-08 16:04 -29.81085 -50.81828 6091 ft 268 kts 228°
2026-05-08 16:04 -29.82400 -50.83328 5795 ft 264 kts 227°
2026-05-08 16:04 -29.83694 -50.84800 5503 ft 260 kts 227°
2026-05-08 16:05 -29.84978 -50.86260 5212 ft 258 kts 227°
2026-05-08 16:05 -29.86250 -50.87707 4925 ft 257 kts 227°
2026-05-08 16:05 -29.87521 -50.89152 4627 ft 257 kts 227°
2026-05-08 16:05 -29.88787 -50.90594 4346 ft 255 kts 227°
2026-05-08 16:06 -29.90041 -50.92018 4082 ft 252 kts 226°
2026-05-08 16:06 -29.91502 -50.93079 3880 ft 246 kts 203°
2026-05-08 16:06 -29.93058 -50.93735 3917 ft 231 kts 203°
2026-05-08 16:06 -29.94516 -50.94369 3758 ft 221 kts 204°
2026-05-08 16:07 -29.95936 -50.95000 3513 ft 215 kts 204°
2026-05-08 16:07 -29.97276 -50.95600 3283 ft 204 kts 204°
2026-05-08 16:07 -29.98566 -50.96178 3100 ft 193 kts 207°
2026-05-08 16:07 -29.99540 -50.97094 2900 ft 175 kts 246°
2026-05-08 16:08 -29.99820 -50.98397 2760 ft 166 kts 268°
2026-05-08 16:08 -29.99820 -50.99719 2573 ft 163 kts 272°
2026-05-08 16:08 -29.99791 -51.01005 2400 ft 156 kts 272°
2026-05-08 16:08 -29.99761 -51.02249 2200 ft 151 kts 272°
2026-05-08 16:09 -29.99734 -51.03423 2013 ft 143 kts 273°
2026-05-08 16:09 -29.99716 -51.04179 1906 ft 143 kts 272°
2026-05-08 16:09 -29.99684 -51.05720 1659 ft 143 kts 272°
2026-05-08 16:09 -29.99662 -51.06876 1462 ft 144 kts 272°
2026-05-08 16:10 -29.99639 -51.08027 1271 ft 143 kts 271°
2026-05-08 16:10 -29.99617 -51.09175 1080 ft 143 kts 272°
2026-05-08 16:10 -29.99594 -51.10317 892 ft 144 kts 272°
2026-05-08 16:10 -29.99572 -51.11471 696 ft 148 kts 271°
2026-05-08 16:11 -29.99548 -51.12660 509 ft 149 kts 271°
2026-05-08 16:11 -29.99526 -51.13853 307 ft 150 kts 272°
2026-05-08 16:11 -29.99503 -51.15077 50 ft 154 kts 271°
2026-05-08 16:11 -29.99482 -51.16237 28 ft 130 kts 271°
2026-05-08 16:12 -29.99462 -51.17129 18 ft 73 kts 271°
2026-05-08 16:12 -29.99453 -51.17597 21 ft 41 kts 271°
2026-05-08 16:12 -29.99387 -51.17705 20 ft 17 kts
2026-05-08 16:12 -29.99272 -51.17699 19 ft 15 kts
2026-05-08 16:13 -29.99183 -51.17683 21 ft 13 kts 46°
2026-05-08 16:13 -29.99178 -51.17584 19 ft 13 kts 97°
2026-05-08 16:13 -29.99160 -51.17524 19 ft 7 kts 13°
2026-05-08 16:13 -29.99134 -51.17524 19 ft 0 kts 359°